When you browse on this site, cookies collect data to enhance your experience and personalize the content and advertising you see.
Visit our Privacy Policy to learn more. By continuing to use the site, you agree to this use of cookies and data.
  • In Hungary
  • List of Countries
  • For 7 days
  • Water Temperature
  • Weather Map
  • News
  • Weather Widgets
  • user-avatar
    Login

    Hourly Weather Ciudad Constitucion

    Today, 18 November, Monday

    Time Temperature Precipitation Wind Pressure Humidity
    00:00 +25°C° 0 mm 4 mps 752 mmHg 82%
    01:00 +25°C° 0 mm 4 mps 752 mmHg 83%
    02:00 +25°C° 0 mm 4 mps 752 mmHg 84%
    03:00 +25°C° 0.5 mm 3 mps 752 mmHg 85%
    04:00 +25°C° 0.5 mm 3 mps 752 mmHg 86%
    05:00 +25°C° 0.5 mm 3 mps 751 mmHg 87%
    06:00 +26°C° 0.7 mm 3 mps 752 mmHg 85%
    07:00 +26°C° 0.7 mm 4 mps 752 mmHg 83%
    08:00 +27°C° 0.7 mm 4 mps 753 mmHg 81%
    09:00 +28°C° 0.1 mm 5 mps 753 mmHg 77%
    10:00 +29°C° 0.1 mm 6 mps 753 mmHg 73%
    11:00 +31°C° 0.1 mm 8 mps 753 mmHg 69%
    12:00 +32°C° 0.2 mm 7 mps 753 mmHg 67%
    13:00 +32°C° 0.2 mm 7 mps 752 mmHg 64%
    14:00 +32°C° 0.2 mm 7 mps 752 mmHg 62%
    15:00 +30°C° 0 mm 6 mps 752 mmHg 64%
    16:00 +29°C° 0 mm 6 mps 752 mmHg 66%
    17:00 +29°C° 0 mm 5 mps 752 mmHg 68%
    18:00 +28°C° 0 mm 5 mps 752 mmHg 72%
    19:00 +27°C° 0 mm 4 mps 753 mmHg 76%
    20:00 +26°C° 0 mm 4 mps 753 mmHg 79%
    21:00 +26°C° 0 mm 3 mps 754 mmHg 79%
    22:00 +26°C° 0 mm 3 mps 754 mmHg 79%
    23:00 +26°C° 0 mm 3 mps 754 mmHg 79%

    Tomorrow, 19 November, Tuesday

    Time Temperature Precipitation Wind Pressure Humidity
    00:00 +25°C° 0 mm 3 mps 753 mmHg 78%
    01:00 +25°C° 0 mm 3 mps 753 mmHg 78%
    02:00 +25°C° 0 mm 3 mps 753 mmHg 77%
    03:00 +25°C° 0 mm 3 mps 753 mmHg 78%
    04:00 +25°C° 0 mm 3 mps 753 mmHg 79%
    05:00 +24°C° 0 mm 3 mps 753 mmHg 80%
    06:00 +24°C° 0.1 mm 3 mps 753 mmHg 80%
    07:00 +24°C° 0.1 mm 3 mps 753 mmHg 79%
    08:00 +24°C° 0.1 mm 3 mps 754 mmHg 79%
    09:00 +25°C° 0.1 mm 3 mps 754 mmHg 76%
    10:00 +25°C° 0.1 mm 3 mps 754 mmHg 73%
    11:00 +25°C° 0.1 mm 4 mps 754 mmHg 70%
    12:00 +25°C° 0 mm 5 mps 753 mmHg 69%
    13:00 +24°C° 0 mm 6 mps 753 mmHg 67%
    14:00 +24°C° 0 mm 7 mps 752 mmHg 65%
    15:00 +24°C° 0 mm 7 mps 752 mmHg 64%
    16:00 +23°C° 0 mm 7 mps 752 mmHg 64%
    17:00 +23°C° 0 mm 7 mps 752 mmHg 63%
    18:00 +22°C° 0 mm 6 mps 752 mmHg 64%
    19:00 +22°C° 0 mm 6 mps 753 mmHg 64%
    20:00 +22°C° 0 mm 6 mps 753 mmHg 65%
    21:00 +21°C° 0 mm 5 mps 753 mmHg 67%
    22:00 +21°C° 0 mm 4 mps 754 mmHg 69%
    23:00 +21°C° 0 mm 4 mps 754 mmHg 71%

    Day after tomorrow, 20 November, Wednesday

    Time Temperature Precipitation Wind Pressure Humidity
    00:00 +21°C° 0 mm 3 mps 754 mmHg 72%
    01:00 +20°C° 0 mm 3 mps 753 mmHg 73%
    02:00 +20°C° 0 mm 3 mps 753 mmHg 75%
    03:00 +20°C° 0 mm 3 mps 753 mmHg 75%
    04:00 +20°C° 0 mm 2 mps 753 mmHg 76%
    05:00 +20°C° 0 mm 2 mps 753 mmHg 77%
    06:00 +20°C° 0 mm 2 mps 753 mmHg 76%
    07:00 +21°C° 0 mm 3 mps 754 mmHg 75%
    08:00 +21°C° 0 mm 3 mps 754 mmHg 74%
    09:00 +22°C° 0.2 mm 4 mps 754 mmHg 71%
    10:00 +23°C° 0.2 mm 4 mps 754 mmHg 68%
    11:00 +25°C° 0.2 mm 5 mps 755 mmHg 65%
    12:00 +25°C° 0.2 mm 5 mps 754 mmHg 65%
    13:00 +25°C° 0.2 mm 5 mps 753 mmHg 65%
    14:00 +25°C° 0.2 mm 5 mps 753 mmHg 66%
    15:00 +25°C° 0.1 mm 5 mps 753 mmHg 65%
    16:00 +25°C° 0.1 mm 5 mps 753 mmHg 65%
    17:00 +25°C° 0.1 mm 5 mps 753 mmHg 64%
    18:00 +23°C° 0.1 mm 4 mps 753 mmHg 68%
    19:00 +22°C° 0.1 mm 4 mps 753 mmHg 71%
    20:00 +22°C° 0.1 mm 3 mps 754 mmHg 75%
    21:00 +22°C° 0 mm 3 mps 754 mmHg 76%
    22:00 +21°C° 0 mm 3 mps 754 mmHg 78%
    23:00 +21°C° 0 mm 3 mps 754 mmHg 79%

    21 November, Thursday

    Time Temperature Precipitation Wind Pressure Humidity
    00:00 +21°C° 0.1 mm 3 mps 754 mmHg 79%
    01:00 +21°C° 0.1 mm 3 mps 754 mmHg 79%
    02:00 +21°C° 0.1 mm 3 mps 754 mmHg 78%
    03:00 +21°C° 0 mm 2 mps 754 mmHg 78%
    04:00 +20°C° 0 mm 2 mps 754 mmHg 78%
    05:00 +20°C° 0 mm 2 mps 754 mmHg 78%
    06:00 +21°C° 0 mm 2 mps 754 mmHg 77%
    07:00 +21°C° 0 mm 2 mps 754 mmHg 75%
    08:00 +23°C° 0 mm 2 mps 755 mmHg 74%
    09:00 +22°C° 0.1 mm 3 mps 755 mmHg 70%
    10:00 +24°C° 0.1 mm 3 mps 755 mmHg 67%
    11:00 +25°C° 0.1 mm 3 mps 755 mmHg 63%
    12:00 +25°C° 0.1 mm 4 mps 755 mmHg 61%
    13:00 +26°C° 0.1 mm 4 mps 754 mmHg 60%
    14:00 +26°C° 0.1 mm 5 mps 754 mmHg 58%
    15:00 +25°C° 0 mm 5 mps 754 mmHg 59%
    16:00 +25°C° 0 mm 5 mps 754 mmHg 61%
    17:00 +23°C° 0 mm 5 mps 754 mmHg 62%
    18:00 +23°C° 0 mm 4 mps 755 mmHg 65%
    19:00 +22°C° 0 mm 3 mps 755 mmHg 67%
    20:00 +21°C° 0 mm 3 mps 755 mmHg 70%
    21:00 +21°C° 0 mm 3 mps 756 mmHg 72%
    22:00 +20°C° 0 mm 3 mps 756 mmHg 74%
    23:00 +20°C° 0 mm 3 mps 756 mmHg 76%

    22 November, Friday

    Time Temperature Precipitation Wind Pressure Humidity
    00:00 +20°C° 0 mm 3 mps 756 mmHg 76%
    01:00 +19°C° 0 mm 3 mps 756 mmHg 77%
    02:00 +19°C° 0 mm 3 mps 756 mmHg 77%
    03:00 +19°C° 0 mm 3 mps 756 mmHg 77%
    04:00 +19°C° 0 mm 3 mps 756 mmHg 77%
    05:00 +18°C° 0 mm 3 mps 756 mmHg 78%
    06:00 +19°C° 0 mm 3 mps 756 mmHg 75%
    07:00 +19°C° 0 mm 3 mps 757 mmHg 73%
    08:00 +19°C° 0 mm 3 mps 757 mmHg 70%
    09:00 +20°C° 0 mm 3 mps 757 mmHg 65%
    10:00 +21°C° 0 mm 2 mps 758 mmHg 60%
    11:00 +23°C° 0 mm 2 mps 758 mmHg 55%
    12:00 +24°C° 0 mm 3 mps 757 mmHg 52%
    13:00 +25°C° 0 mm 3 mps 757 mmHg 49%
    14:00 +25°C° 0 mm 3 mps 756 mmHg 46%
    15:00 +25°C° 0 mm 3 mps 756 mmHg 46%
    16:00 +25°C° 0 mm 4 mps 756 mmHg 47%
    17:00 +23°C° 0 mm 4 mps 756 mmHg 48%
    18:00 +22°C° 0 mm 4 mps 756 mmHg 52%
    19:00 +21°C° 0 mm 4 mps 757 mmHg 56%
    20:00 +20°C° 0 mm 4 mps 757 mmHg 61%
    21:00 +20°C° 0 mm 4 mps 757 mmHg 63%
    22:00 +19°C° 0 mm 3 mps 757 mmHg 65%
    23:00 +19°C° 0 mm 3 mps 757 mmHg 67%

    23 November, Saturday

    Time Temperature Precipitation Wind Pressure Humidity
    00:00 +19°C° 0 mm 3 mps 757 mmHg 68%
    01:00 +19°C° 0 mm 3 mps 757 mmHg 70%
    02:00 +18°C° 0 mm 3 mps 756 mmHg 71%
    03:00 +18°C° 0 mm 2 mps 756 mmHg 73%
    04:00 +18°C° 0 mm 2 mps 756 mmHg 74%
    05:00 +18°C° 0 mm 2 mps 756 mmHg 75%
    06:00 +18°C° 0 mm 2 mps 756 mmHg 74%
    07:00 +18°C° 0 mm 2 mps 757 mmHg 73%
    08:00 +19°C° 0 mm 2 mps 757 mmHg 72%
    09:00 +21°C° 0 mm 1 mps 757 mmHg 65%
    10:00 +22°C° 0 mm 1 mps 757 mmHg 58%
    11:00 +23°C° 0 mm 1 mps 757 mmHg 52%
    12:00 +24°C° 0 mm 2 mps 757 mmHg 47%
    13:00 +25°C° 0 mm 2 mps 756 mmHg 43%
    14:00 +26°C° 0 mm 3 mps 755 mmHg 38%
    15:00 +26°C° 0 mm 3 mps 755 mmHg 41%
    16:00 +25°C° 0 mm 4 mps 755 mmHg 44%
    17:00 +25°C° 0 mm 4 mps 755 mmHg 47%
    18:00 +23°C° 0 mm 4 mps 755 mmHg 52%
    19:00 +22°C° 0 mm 4 mps 756 mmHg 58%
    20:00 +21°C° 0 mm 4 mps 756 mmHg 64%
    21:00 +20°C° 0 mm 3 mps 756 mmHg 66%
    22:00 +20°C° 0 mm 2 mps 756 mmHg 67%
    23:00 +20°C° 0 mm 2 mps 756 mmHg 69%
    Show more